Location: Green River State Wildlife Area
(41.6390°N, 89.5080°W)
Time: 10:00:53
(UTC-05:00)

Daily predictions for brighter satellites

Satellite Brightness Start Highest point End
(mag) Time Altitude Azimuth Time Altitude Azimuth Time Altitude Azimuth
Cosmos 1743 Rocket 4.1 21:04:54 10° SSW 21:09:19 66° W 21:13:47 10° N
Meteor 1-21 Rocket 4.2 21:04:36 10° S 21:10:09 89° E 21:15:42 10° N
Cosmos 1500 Rocket 3.7 21:10:34 10° S 21:14:56 84° W 21:19:22 10° N
S3M 4.3 21:09:55 10° NNW 21:16:00 70° W 21:22:05 10° S
Cosmos 2228 Rocket 4.3 21:11:54 10° NNW 21:16:11 45° W 21:20:29 10° SSW
Cosmos 1437 3.3 21:16:26 10° SSE 21:19:32 40° E 21:22:38 10° NNE
Cosmos 1328 4.4 21:16:56 10° SSE 21:20:36 38° E 21:24:17 10° NNE
Cosmos 1726 4.0 21:18:07 10° NNE 21:20:42 17° ENE 21:23:18 10° ESE
ATLAS 2AS CENTAUR R/B 4.4 21:19:16 10° SE 21:22:36 13° E 21:26:01 10° ENE
Envisat 3.0 21:20:37 10° SSE 21:25:40 75° ENE 21:30:46 10° N
ERS-1 Rocket 3.4 21:21:47 10° S 21:26:46 64° WSW 21:31:47 10° NNW
Cosmos 2219 3.4 21:22:58 10° S 21:28:31 51° ESE 21:34:04 10° NNE
Delta 2 Rocket 3.9 21:25:58 10° WSW 21:29:11 29° S 21:31:53 12° ESE
deb Chang Zheng 4 3.7 21:26:42 10° N 21:31:04 80° WNW 21:35:23 10° SSW
Cosmos 2237 Rocket 4.0 21:30:51 10° N 21:34:51 19° NE 21:38:49 10° E
Cosmos 2322 3.8 21:31:35 10° NNW 21:37:20 82° WSW 21:43:01 10° SSE
SL-23 DEB 4.0 21:32:04 10° NW 21:37:34 84° NNE 21:40:32 14° ESE
Cosmos 2322 Rocket 4.0 21:32:57 10° NW 21:37:38 28° WSW 21:42:18 10° SSW
Cosmos 1271 Rocket 4.5 21:35:07 10° NNE 21:37:52 18° ENE 21:40:05 12° ESE
Cosmos 2112 Rocket 4.0 21:33:10 10° NNW 21:38:26 78° ENE 21:43:24 12° SSE
Cosmos 2151 2.9 21:37:13 10° S 21:41:25 85° E 21:45:38 10° N
SL-14 R/B 4.1 21:40:06 13° SSE 21:43:06 32° E 21:46:41 10° NNE
Meteor 1-4 Rocket 4.2 21:40:28 10° NNE 21:43:27 22° ENE 21:45:29 14° ESE
NOSS 3-1 (C) 3.5 21:40:11 10° SSW 21:45:51 57° ESE 21:52:08 10° NE
Nimbus 7 Rocket 4.5 21:40:06 10° NNE 21:45:59 85° WNW 21:51:51 10° SSW
Terra 3.6 21:43:25 10° ESE 21:46:33 18° ENE 21:49:46 10° NNE
Cosmos 2298 Rocket 4.4 21:41:39 10° S 21:46:41 45° ESE 21:51:44 10° NNE
Cosmos 2360 Rocket 2.5 21:41:12 10° NNW 21:46:49 67° WSW 21:52:21 10° SSE
SL-16 R/B 4.2 21:44:40 10° NW 21:49:08 24° WSW 21:53:34 10° SSW
Aureole 3 4.3 21:43:01 10° S 21:49:43 83° E 21:55:02 10° N
MetOp-B 4.1 21:44:55 11° SSE 21:50:04 79° ENE 21:55:27 10° N
Sich 1 3.6 21:48:46 14° SSE 21:52:11 39° E 21:56:17 10° NNE
CZ-4 SHROUD 3.4 21:51:29 13° S 21:54:10 68° W 21:57:18 10° NNW
DELTA 2 R/B (1) 4.1 21:49:06 10° W 21:54:19 42° SSW 21:58:07 17° SE
USA 245 2.8 21:53:36 24° SE 21:54:39 39° ENE 21:56:51 10° N
Cosmos 1633 Rocket 3.6 21:52:39 15° SSE 21:55:51 40° E 21:59:58 10° NNE
Cosmos 2058 2.8 21:52:24 10° S 21:56:29 75° E 22:00:35 10° NNE
Cosmos 1151 Rocket 4.2 21:55:52 10° NNW 21:59:56 42° W 22:04:01 10° SSW
OAO 2 Rocket 4.3 21:55:29 10° SW 22:00:03 30° SSE 22:03:20 16° ESE
Cosmos 1626 4.1 22:01:02 14° E 22:01:38 15° E 22:03:46 10° NE
Cosmos 1674 4.4 21:59:14 10° SW 22:02:43 33° WNW 22:06:16 10° N
CZ-4 R/B 4.0 22:04:39 10° NNE 22:09:31 56° E 22:13:19 16° S
SL-08 RB Rocket 3.9 22:06:50 21° SE 22:09:39 56° ENE 22:14:04 10° N
CZ-4B R/B 3.5 22:06:01 10° NNE 22:11:19 82° ESE 22:16:30 10° SSW
Cosmos 1805 Rocket 3.7 22:06:53 10° S 22:11:20 78° W 22:15:48 10° N
H-2A R/B 2.9 22:08:02 19° SE 22:11:21 38° ENE 22:16:20 10° N
Cosmos 2227 Rocket 3.0 22:11:30 20° SSE 22:14:22 32° ESE 22:19:18 10° NE
Meteor 1-11 4.2 22:08:36 10° S 22:14:22 87° ESE 22:20:08 10° N
Cosmos 1680 Rocket 4.5 22:09:54 10° NNW 22:14:50 42° WSW 22:19:32 11° S
YAOGAN 6 2.9 22:12:45 18° S 22:15:18 62° W 22:18:53 10° NNW
Cosmos 1300 2.8 22:11:31 10° N 22:15:22 75° W 22:17:53 20° S
Tiangong 1 1.0 22:12:38 10° WSW 22:15:40 54° SSE 22:17:13 25° E
Cosmos 2315 Rocket 4.3 22:09:53 10° NNW 22:16:02 67° W 22:21:58 11° S
SPOT 1/Viking Rocket 3.7 22:19:48 18° S 22:23:38 73° WSW 22:28:49 10° NNW
H-2A R/B 4.5 22:24:30 10° SW 22:27:45 19° W 22:31:01 10° NW
Cosmos 1898 Rocket 3.4 22:22:50 10° SSW 22:28:00 90° WNW 22:33:15 10° NNE
Cosmos 2333 Rocket 2.7 22:22:27 10° NNW 22:28:03 51° ENE 22:31:18 24° SE
SL-16 R/B 3.9 22:24:01 10° N 22:28:25 22° NE 22:32:01 13° E
DELTA 2 R/B(2) 3.9 22:27:49 10° WSW 22:29:22 49° SW 22:29:22 49° SW
Cosmos 1707 Rocket 4.1 22:25:37 10° NNW 22:29:53 54° W 22:32:57 18° SSW
IGS 5A 4.2 22:29:10 28° ESE 22:30:45 39° ENE 22:34:39 10° N
Cosmos 858 Rocket 4.5 22:28:10 10° SSW 22:33:23 88° WNW 22:38:38 10° NNE
Cosmos 1666 Rocket 4.0 22:29:56 12° SSW 22:33:55 60° W 22:38:19 10° N
Cosmos 220 Rocket 3.9 22:31:40 22° S 22:34:28 71° ESE 22:38:54 10° NNE
Cosmos 2150 Rocket 4.2 22:30:01 10° SSW 22:35:28 77° WNW 22:40:58 10° NNE
Cosmos 1455 2.8 22:34:18 10° N 22:37:56 41° ENE 22:38:49 35° ESE
Nadezhda 1 Rocket 4.0 22:32:54 10° N 22:38:58 64° E 22:42:17 28° SSE
COSMOS 2428 3.3 22:34:17 10° NW 22:39:45 51° WSW 22:43:18 21° S
Cosmos 2297 Rocket 2.8 22:39:28 29° SE 22:41:21 37° ESE 22:46:29 10° NE
SAR-Lupe-2 4.1 22:40:40 37° ESE 22:41:26 44° ENE 22:44:51 10° N
ARGOS 3.6 22:41:02 21° S 22:44:38 58° W 22:49:58 10° NNW
Cosmos 1470 Rocket 3.4 22:45:42 35° S 22:47:27 75° E 22:51:46 10° NNE
Cosmos 2219 Rocket 2.1 22:42:15 10° NNW 22:47:53 87° WSW 22:50:35 32° SSE
Cosmos 1933 Rocket 3.5 22:46:48 34° S 22:48:39 74° E 22:53:08 10° NNE
MINOTAUR R/B 4.5 22:46:41 10° NNW 22:49:47 74° WSW 22:50:02 68° SSW
NOSS 3-1 (A) 3.7 22:43:59 10° SW 22:49:52 70° NW 22:56:26 10° NNE
Cosmos 1745 Rocket 4.0 22:47:12 20° S 22:51:43 88° W 22:57:56 10° N
Cosmos 1869 3.5 22:51:26 10° N 22:55:26 57° E 22:56:15 46° SE
Cosmos 1726 3.8 22:52:50 10° NNW 22:56:08 29° W 22:58:06 18° SW
DMSP B5D2-2 4.0 22:53:44 10° NNE 22:58:58 75° ESE 23:01:25 32° S
Cosmos 1709 Rocket 4.3 22:57:41 32° SE 23:00:02 48° E 23:05:52 10° NNE
CZ-4C R/B 3.7 22:59:54 37° SW 23:00:45 45° W 23:04:06 10° NNW
NOSS 0 Rocket 3.9 22:56:18 10° NNW 23:02:29 77° WSW 23:05:19 34° SSE
ERBS 2.2 23:05:20 73° SSW 23:05:37 84° SE 23:09:07 10° NE
Cosmos 1980 3.6 23:01:16 10° NNW 23:06:57 85° WSW 23:09:10 39° SSE
Landsat 7 4.4 23:05:56 30° SSW 23:08:01 51° W 23:12:40 10° NNW
ATLAS 2AS CENTAUR R/B 2.9 23:05:37 14° SSW 23:12:07 72° ESE 23:20:08 10° NE
Spot 2 4.4 23:08:49 10° NNE 23:13:57 88° ESE 23:15:54 38° SSW
Cosmos 1271 Rocket 4.3 23:10:36 10° NNW 23:13:57 29° W 23:15:19 23° SW
Cosmos 1386 Rocket 4.5 23:12:51 27° SSW 23:16:16 77° W 23:22:18 10° N
Cosmos 1346 4.1 23:17:15 40° W 23:17:25 41° WNW 23:20:20 10° N
Cosmos 2237 Rocket 2.2 23:13:49 10° NNW 23:19:31 74° WSW 23:21:31 41° S
Cosmos 44 Rocket 4.5 23:22:33 29° E 23:22:33 29° E 23:26:26 10° NE
Cosmos 2082 3.9 23:19:48 20° SSW 23:23:50 73° WNW 23:29:35 10° NNE
Terra 2.4 23:22:18 36° SSW 23:23:53 51° W 23:28:31 10° NNW
COS B Rocket 3.8 23:20:57 10° NNE 23:24:36 45° E 23:24:36 45° E
Cosmos 2181 Rocket 4.1 23:20:25 10° N 23:26:48 69° E 23:29:09 41° SSE
Spot 4 4.1 23:26:34 42° SSW 23:27:58 60° W 23:32:47 10° NNW
ATLAS 3B R/B 2.8 23:21:13 10° NNW 23:28:15 68° NE 23:31:15 35° SE
Cosmos 1862 Rocket 4.2 23:24:28 10° NNW 23:28:38 47° W 23:29:43 38° SW
Lacrosse 4 Rocket 2.0 23:24:34 10° NNW 23:28:54 49° ENE 23:29:44 43° E
Meteor 2-3 Rocket 4.5 23:33:21 34° ESE 23:34:18 36° E 23:39:28 10° NNE
Cosmos 1626 3.5 23:35:44 28° WSW 23:36:44 34° WNW 23:40:12 10° N
Cosmos 1900 4.2 23:33:53 10° NNW 23:38:53 80° ENE 23:39:48 59° SE
NOSS 2-3 (E) 4.0 23:46:41 56° SE 23:46:52 57° ESE 23:52:17 10° NE
H-2A R/B 3.6 23:48:41 22° SW 23:50:48 29° W 23:55:27 10° NW
COSMOS 2455 2.8 23:45:42 10° NNW 23:51:46 84° WSW 23:53:21 52° SSE
Tiangong 1 4.0 23:49:10 10° W 23:49:21 11° W 23:49:21 11° W
Cosmos 1269 Rocket 4.1 23:48:11 10° NNW 23:53:29 69° WSW 23:54:28 55° SSW
Cosmos 1933 3.7 23:50:47 10° NNW 23:54:46 56° W 23:54:51 56° W
